| time (UTC) | temp C | wind direction | speed KPH | gust KPH | rain 1hr cm | rain 24hr cm | rain mn cm | humidity % | barometer mb |
| 20260503002057 | 18 | 331 | 8.0 | 14.5 | 0.00 | 0.00 | 0.00 | 57 | 1035.9 |
| 20260503001054 | 17 | 325 | 6.4 | 8.0 | 0.00 | 0.00 | 0.00 | 58 | 1036.0 |
| 20260503000052 | 17 | 322 | 4.8 | 11.3 | 0.00 | 0.00 | 0.00 | 60 | 1036.2 |
| 20260502235046 | 16 | 318 | 6.4 | 9.7 | 0.00 | 0.00 | 0.00 | 63 | 1036.4 |
| 20260502234044 | 17 | 309 | 4.8 | 6.4 | 0.00 | 0.00 | 0.00 | 61 | 1036.6 |
| 20260502233041 | 17 | 345 | 4.8 | 12.9 | 0.00 | 0.00 | 0.00 | 62 | 1036.6 |
| 20260502232032 | 16 | 339 | 4.8 | 6.4 | 0.00 | 0.00 | 0.00 | 63 | 1036.7 |
| 20260502231029 | 16 | 307 | 6.4 | 8.0 | 0.00 | 0.00 | 0.00 | 61 | 1036.8 |
| 20260502230027 | 17 | 329 | 6.4 | 12.9 | 0.00 | 0.00 | 0.00 | 56 | 1036.8 |
| 20260502225019 | 17 | 256 | 1.6 | 6.4 | 0.00 | 0.00 | 0.00 | 60 | 1036.9 |
| 20260502224039 | 17 | 309 | 4.8 | 6.4 | 0.00 | 0.00 | 0.00 | 60 | 1036.9 |
| 20260502223115 | 18 | 259 | 1.6 | 6.4 | 0.00 | 0.00 | 0.00 | 58 | 1037.0 |
| 20260502222110 | 18 | 232 | 3.2 | 6.4 | 0.00 | 0.00 | 0.00 | 60 | 1037.1 |
| 20260502221107 | 16 | 90 | 1.6 | 3.2 | 0.00 | 0.00 | 0.00 | 63 | 1037.1 |
| 20260502220125 | 16 | 75 | 4.8 | 8.0 | 0.00 | 0.00 | 0.00 | 64 | 1037.2 |
| 20260502215115 | 16 | 58 | 3.2 | 6.4 | 0.00 | 0.00 | 0.00 | 66 | 1037.3 |
| 20260502214053 | 16 | 78 | 3.2 | 6.4 | 0.00 | 0.00 | 0.00 | 65 | 1037.3 |
| 20260502213051 | 16 | 90 | 3.2 | 6.4 | 0.00 | 0.00 | 0.00 | 68 | 1037.3 |
| 20260502212104 | 15 | 88 | 1.6 | 6.4 | 0.00 | 0.00 | 0.00 | 71 | 1037.3 |
| 20260502211041 | 13 | 65 | 4.8 | 8.0 | 0.00 | 0.00 | 0.00 | 69 | 1037.3 |
| 20260502210033 | 13 | 70 | 4.8 | 9.7 | 0.00 | 0.00 | 0.00 | 66 | 1037.4 |
| 20260502205030 | 14 | 74 | 4.8 | 9.7 | 0.00 | 0.00 | 0.00 | 67 | 1037.3 |
| 20260502204029 | 15 | 48 | 3.2 | 6.4 | 0.00 | 0.00 | 0.00 | 73 | 1037.3 |
| 20260502203042 | 14 | 86 | 3.2 | 8.0 | 0.00 | 0.00 | 0.00 | 84 | 1037.2 |
| 20260502202020 | 12 | 89 | 3.2 | 6.4 | 0.00 | 0.00 | 0.00 | 92 | 1037.2 |
| 20260502201016 | 10 | 83 | 3.2 | 4.8 | 0.00 | 0.00 | 0.00 | 93 | 1037.1 |
| 20260502200108 | 8 | 73 | 3.2 | 6.4 | 0.00 | 0.00 | 0.00 | 92 | 1037.0 |
| 20260502195106 | 7 | 109 | 1.6 | 4.8 | 0.00 | 0.00 | 0.00 | 92 | 1036.9 |
| 20260502194105 | 7 | 78 | 4.8 | 6.4 | 0.00 | 0.00 | 0.00 | 92 | 1036.8 |
| 20260502193056 | 7 | 78 | 3.2 | 4.8 | 0.00 | 0.00 | 0.00 | 92 | 1036.7 |
| 20260502192055 | 8 | 67 | 4.8 | 12.9 | 0.00 | 0.00 | 0.00 | 92 | 1036.7 |
| 20260502191052 | 7 | 90 | 9.7 | 14.5 | 0.00 | 0.00 | 0.00 | 92 | 1036.6 |
| 20260502190044 | 7 | 113 | 8.0 | 12.9 | 0.00 | 0.00 | 0.00 | 92 | 1036.6 |
| 20260502185043 | 7 | 84 | 3.2 | 6.4 | 0.00 | 0.00 | 0.00 | 92 | 1036.6 |
| 20260502184040 | 7 | 81 | 4.8 | 9.7 | 0.00 | 0.00 | 0.00 | 92 | 1036.6 |
| 20260502182032 | 7 | 74 | 3.2 | 6.4 | 0.00 | 0.00 | 0.00 | 92 | 1036.7 |
| 20260502181027 | 7 | 98 | 4.8 | 11.3 | 0.00 | 0.00 | 0.00 | 93 | 1036.6 |
| 20260502164114 | 7 | 90 | 4.8 | 6.4 | 0.00 | 0.00 | 0.00 | 95 | 1036.5 |
| 20260502163046 | 7 | 94 | 6.4 | 8.0 | 0.00 | 0.00 | 0.00 | 95 | 1036.5 |
| 20260502162102 | 7 | 95 | 4.8 | 9.7 | 0.00 | 0.00 | 0.00 | 95 | 1036.5 |
| 20260502161040 | 7 | 90 | 4.8 | 8.0 | 0.00 | 0.00 | 0.00 | 95 | 1036.6 |
| 20260502152018 | 7 | 93 | 3.2 | 6.4 | 0.00 | 0.00 | 0.00 | 95 | 1036.6 |
| 20260502151037 | 7 | 90 | 4.8 | 8.0 | 0.00 | 0.00 | 0.00 | 95 | 1036.6 |
| 20260502150108 | 7 | 93 | 3.2 | 6.4 | 0.00 | 0.00 | 0.00 | 96 | 1036.7 |
| 20260502123109 | 7 | 87 | 4.8 | 9.7 | 0.00 | 0.00 | 0.00 | 92 | 1036.2 |
| 20260502122107 | 7 | 91 | 4.8 | 9.7 | 0.00 | 0.00 | 0.00 | 92 | 1036.2 |
| 20260502121124 | 7 | 100 | 4.8 | 8.0 | 0.00 | 0.00 | 0.00 | 94 | 1036.1 |
| 20260502115053 | 7 | 61 | 3.2 | 6.4 | 0.00 | 0.00 | 0.00 | 91 | 1036.0 |
| 20260502114052 | 7 | 94 | 1.6 | 3.2 | 0.00 | 0.00 | 0.00 | 91 | 1036.0 |
| 20260502113044 | 7 | 90 | 3.2 | 6.4 | 0.00 | 0.00 | 0.00 | 91 | 1035.9 |
| 20260502112041 | 8 | 95 | 3.2 | 6.4 | 0.00 | 0.00 | 0.00 | 91 | 1035.9 |
| 20260502111039 | 8 | 99 | 4.8 | 6.4 | 0.00 | 0.00 | 0.00 | 91 | 1035.9 |
| 20260502110031 | 8 | 90 | 3.2 | 6.4 | 0.00 | 0.00 | 0.00 | 91 | 1035.9 |
| 20260502105030 | 8 | 94 | 3.2 | 6.4 | 0.00 | 0.00 | 0.00 | 91 | 1035.9 |
| 20260502104049 | 8 | 85 | 3.2 | 6.4 | 0.00 | 0.00 | 0.00 | 91 | 1035.9 |
| 20260502103019 | 8 | 93 | 4.8 | 6.4 | 0.00 | 0.00 | 0.00 | 91 | 1035.8 |
| 20260502102037 | 8 | 80 | 8.0 | 11.3 | 0.00 | 0.00 | 0.00 | 91 | 1035.8 |
| 20260502101017 | 8 | 100 | 4.8 | 8.0 | 0.00 | 0.00 | 0.00 | 91 | 1035.7 |
| 20260502100108 | 8 | 77 | 4.8 | 8.0 | 0.00 | 0.00 | 0.00 | 91 | 1035.6 |
| 20260502091052 | 8 | 86 | 3.2 | 4.8 | 0.00 | 0.00 | 0.00 | 90 | 1035.1 |
| 20260502071103 | 10 | 93 | 3.2 | 4.8 | 0.00 | 0.00 | 0.00 | 84 | 1034.5 |
| 20260502070055 | 10 | 90 | 3.2 | 6.4 | 0.00 | 0.00 | 0.00 | 82 | 1034.4 |
| 20260502065053 | 11 | 90 | 4.8 | 6.4 | 0.00 | 0.00 | 0.00 | 79 | 1034.3 |
| 20260502064051 | 11 | 81 | 3.2 | 6.4 | 0.00 | 0.00 | 0.00 | 76 | 1034.1 |
| 20260502063125 | 11 | 62 | 1.6 | 3.2 | 0.00 | 0.00 | 0.00 | 73 | 1034.0 |
| 20260502062101 | 11 | 135 | 1.6 | 3.2 | 0.00 | 0.00 | 0.00 | 71 | 1033.8 |
| 20260502061101 | 12 | 135 | 1.6 | 3.2 | 0.00 | 0.00 | 0.00 | 70 | 1033.7 |
| 20260502060110 | 13 | 135 | 0.0 | 3.2 | 0.00 | 0.00 | 0.00 | 61 | 1033.8 |
| 20260502055107 | 15 | 135 | 0.0 | 3.2 | 0.00 | 0.00 | 0.00 | 59 | 1033.8 |
| 20260502054105 | 16 | 167 | 1.6 | 4.8 | 0.00 | 0.00 | 0.00 | 56 | 1033.6 |
| 20260502053103 | 18 | 206 | 3.2 | 4.8 | 0.00 | 0.00 | 0.00 | 51 | 1033.7 |
| 20260502052101 | 20 | 199 | 3.2 | 6.4 | 0.00 | 0.00 | 0.00 | 50 | 1033.6 |
| 20260502051101 | 21 | 221 | 4.8 | 6.4 | 0.00 | 0.00 | 0.00 | 49 | 1033.6 |
| 20260502050057 | 22 | 217 | 4.8 | 8.0 | 0.00 | 0.00 | 0.00 | 46 | 1033.5 |
| 20260502045056 | 22 | 229 | 6.4 | 8.0 | 0.00 | 0.00 | 0.00 | 43 | 1033.5 |
| 20260502044055 | 23 | 224 | 6.4 | 11.3 | 0.00 | 0.00 | 0.00 | 43 | 1033.6 |
| 20260502043051 | 23 | 230 | 8.0 | 12.9 | 0.00 | 0.00 | 0.00 | 44 | 1033.7 |
| 20260502042049 | 23 | 221 | 6.4 | 8.0 | 0.00 | 0.00 | 0.00 | 44 | 1033.7 |
| 20260502041047 | 22 | 246 | 8.0 | 12.9 | 0.00 | 0.00 | 0.00 | 44 | 1033.6 |
| 20260502040044 | 23 | 235 | 6.4 | 11.3 | 0.00 | 0.00 | 0.00 | 42 | 1033.6 |
| 20260502035042 | 24 | 215 | 8.0 | 12.9 | 0.00 | 0.00 | 0.00 | 41 | 1033.7 |
| 20260502034042 | 25 | 244 | 8.0 | 12.9 | 0.00 | 0.00 | 0.00 | 41 | 1033.7 |
| 20260502033100 | 24 | 228 | 6.4 | 9.7 | 0.00 | 0.00 | 0.00 | 42 | 1033.8 |
| 20260502032036 | 23 | 239 | 6.4 | 11.3 | 0.00 | 0.00 | 0.00 | 47 | 1034.0 |
| 20260502031034 | 20 | 228 | 6.4 | 12.9 | 0.00 | 0.00 | 0.00 | 50 | 1034.0 |
| 20260502030033 | 20 | 248 | 4.8 | 6.4 | 0.00 | 0.00 | 0.00 | 49 | 1034.1 |
| 20260502025050 | 20 | 235 | 4.8 | 8.0 | 0.00 | 0.00 | 0.00 | 50 | 1034.3 |
| 20260502024029 | 20 | 301 | 4.8 | 8.0 | 0.00 | 0.00 | 0.00 | 43 | 1034.3 |
| 20260502023106 | 23 | 224 | 3.2 | 8.0 | 0.00 | 0.00 | 0.00 | 46 | 1034.4 |
| 20260502022026 | 21 | 256 | 4.8 | 11.3 | 0.00 | 0.00 | 0.00 | 51 | 1034.6 |
| 20260502021022 | 20 | 315 | 4.8 | 11.3 | 0.00 | 0.00 | 0.00 | 52 | 1034.7 |
| 20260502020021 | 20 | 281 | 6.4 | 11.3 | 0.00 | 0.00 | 0.00 | 52 | 1034.7 |
| 20260502015057 | 19 | 269 | 4.8 | 8.0 | 0.00 | 0.00 | 0.00 | 53 | 1034.8 |
| 20260502014116 | 18 | 305 | 8.0 | 16.1 | 0.00 | 0.00 | 0.00 | 52 | 1035.0 |
| 20260502013113 | 19 | 273 | 4.8 | 12.9 | 0.00 | 0.00 | 0.00 | 53 | 1035.2 |
| 20260502012110 | 19 | 307 | 6.4 | 12.9 | 0.00 | 0.00 | 0.00 | 53 | 1035.3 |
| 20260502011110 | 18 | 295 | 8.0 | 12.9 | 0.00 | 0.00 | 0.00 | 55 | 1035.5 |
| 20260502010106 | 17 | 310 | 6.4 | 11.3 | 0.00 | 0.00 | 0.00 | 59 | 1035.6 |
| 20260502005104 | 18 | 313 | 9.7 | 17.7 | 0.00 | 0.00 | 0.00 | 57 | 1035.7 |
| 20260502004102 | 17 | 262 | 4.8 | 8.0 | 0.00 | 0.00 | 0.00 | 61 | 1035.9 |
| 20260502003123 | 16 | 308 | 6.4 | 9.7 | 0.00 | 0.00 | 0.00 | 60 | 1036.1 |